IT9IRS-4 Weather Reports


Display with metric or nautical units.
time (UTC)temp
F
wind
direction
speed
MPH
gust
MPH
rain 1hr
in
rain 24hr
in
rain mn
in
humidity
%
barometer
mb
20260504141217 68 36 10.0 13.0 0.00 0.00 0.00 46 1019.4
20260504140503 68 13 9.0 11.0 0.00 0.00 0.00 50 1019.7
20260504140213 68 17 8.0 11.0 0.00 0.00 0.00 50 1019.7
20260504130716 67 58 10.0 13.0 0.00 0.00 0.00 52 1020.1
20260504110503 67 70 12.0 15.0 0.00 0.00 0.00 51 1020.9
20260504100503 67 54 10.0 11.0 0.00 0.00 0.00 52 1021.1
20260504082004 65 72 10.0 12.0 0.00 0.00 0.00 54 1021.2
20260504081713 66 60 10.0 12.0 0.00 0.00 0.00 53 1021.2
20260504081004 66 28 6.0 9.0 0.00 0.00 0.00 51 1021.2
20260504080504 66 37 6.0 8.0 0.00 0.00 0.00 51 1021.3
20260504060218 62 22 2.0 3.0 0.00 0.00 0.00 54 1021.2
20260504050503 59 66 4.0 6.0 0.00 0.00 0.00 61 1021.3
20260504050004 59 80 4.0 7.0 0.00 0.00 0.00 61 1021.1
20260504045504 59 70 4.0 7.0 0.00 0.00 0.00 60 1021.3
20260504045003 58 101 3.0 6.0 0.00 0.00 0.00 60 1021.2
20260504044504 58 200 3.0 6.0 0.00 0.00 0.00 60 1021.3
20260504044003 58 184 4.0 9.0 0.00 0.00 0.00 61 1021.0
20260504043503 58 199 5.0 9.0 0.00 0.00 0.00 61 1021.0
20260504043004 58 219 4.0 9.0 0.00 0.00 0.00 63 1021.0
20260504042503 58 250 3.0 6.0 0.00 0.00 0.00 63 1021.0
20260504042003 57 293 1.0 3.0 0.00 0.00 0.00 63 1020.8
20260504041715 57 330 1.0 2.0 0.00 0.00 0.00 63 1021.0
20260504041003 57 352 2.0 3.0 0.00 0.00 0.00 63 1020.7
20260504040504 57 12 2.0 4.0 0.00 0.00 0.00 63 1020.7
20260504040214 57 41 2.0 4.0 0.00 0.00 0.00 63 1020.7
20260504035503 57 33 2.0 4.0 0.00 0.00 0.00 63 1020.7
20260504035003 57 317 1.0 2.0 0.00 0.00 0.00 63 1020.5
20260504034504 57 301 1.0 2.0 0.00 0.00 0.00 62 1020.5
20260504034003 57 305 2.0 4.0 0.00 0.00 0.00 62 1020.7
20260504033504 57 290 3.0 6.0 0.00 0.00 0.00 62 1020.7
20260504033003 58 304 3.0 6.0 0.00 0.00 0.00 62 1020.6
20260504032504 58 3 2.0 2.0 0.00 0.00 0.00 62 1020.7
20260504032003 58 33 2.0 2.0 0.00 0.00 0.00 62 1020.6
20260504031503 58 45 2.0 3.0 0.00 0.00 0.00 62 1020.4
20260504031004 57 50 3.0 4.0 0.00 0.00 0.00 62 1020.5
20260504030504 57 45 2.0 4.0 0.00 0.00 0.00 62 1020.5
20260504030003 57 266 1.0 2.0 0.00 0.00 0.00 62 1020.6
20260504025503 58 229 3.0 5.0 0.00 0.00 0.00 62 1020.5
20260504025005 58 233 5.0 6.0 0.00 0.00 0.00 62 1020.6
20260504024503 58 235 4.0 6.0 0.00 0.00 0.00 62 1020.7
20260504024003 58 210 2.0 5.0 0.00 0.00 0.00 62 1020.5
20260504023503 58 215 3.0 4.0 0.00 0.00 0.00 62 1020.7
20260504023003 58 196 3.0 4.0 0.00 0.00 0.00 63 1020.7
20260504022716 58 211 3.0 4.0 0.00 0.00 0.00 63 1020.7
20260504022004 57 179 4.0 6.0 0.00 0.00 0.00 63 1021.0
20260504021504 57 167 5.0 6.0 0.00 0.00 0.00 63 1020.9
20260504021215 58 177 5.0 6.0 0.00 0.00 0.00 63 1020.9
20260504020503 58 183 5.0 6.0 0.00 0.00 0.00 62 1020.5
20260504020003 58 190 4.0 6.0 0.00 0.00 0.00 62 1020.7
20260504015714 58 200 3.0 5.0 0.00 0.00 0.00 62 1020.7
20260504015003 58 247 3.0 5.0 0.00 0.00 0.00 62 1020.9
20260504014503 58 249 4.0 5.0 0.00 0.00 0.00 62 1020.8
20260504014004 58 201 3.0 4.0 0.00 0.00 0.00 63 1020.9
20260504013503 58 134 4.0 5.0 0.00 0.00 0.00 63 1020.8
20260504013003 58 109 4.0 5.0 0.00 0.00 0.00 62 1020.8
20260504012716 58 92 3.0 5.0 0.00 0.00 0.00 62 1020.8
20260504012003 58 242 2.0 4.0 0.00 0.00 0.00 62 1020.7
20260504011504 58 300 1.0 3.0 0.00 0.00 0.00 62 1020.8
20260504011003 58 210 2.0 5.0 0.00 0.00 0.00 62 1020.9
20260504010503 59 170 5.0 8.0 0.00 0.00 0.00 62 1020.7
20260504010004 59 187 5.0 8.0 0.00 0.00 0.00 62 1020.8
20260504005503 59 232 4.0 6.0 0.00 0.00 0.00 62 1020.7
20260504005003 59 293 3.0 4.0 0.00 0.00 0.00 63 1020.8
20260504004504 58 276 3.0 4.0 0.00 0.00 0.00 63 1020.8
20260504004213 58 276 2.0 4.0 0.00 0.00 0.00 63 1020.7
20260504003503 58 250 3.0 4.0 0.00 0.00 0.00 63 1020.6
20260504003003 58 226 4.0 6.0 0.00 0.00 0.00 63 1020.9
20260504002504 58 214 4.0 6.0 0.00 0.00 0.00 63 1020.8
20260504002003 58 217 4.0 5.0 0.00 0.00 0.00 63 1021.1
20260504001503 59 246 3.0 5.0 0.00 0.00 0.00 63 1021.0
20260504001004 59 290 3.0 5.0 0.00 0.00 0.00 63 1020.9
20260504000504 59 291 3.0 4.0 0.00 0.00 0.00 63 1021.1
20260504000003 59 246 3.0 4.0 0.00 0.00 0.00 63 1021.0
20260503235715 59 245 3.0 4.0 0.00 0.00 0.00 63 1021.0
20260503235003 59 225 4.0 5.0 0.00 0.00 0.00 63 1021.1
20260503234503 59 180 4.0 6.0 0.00 0.00 0.00 63 1021.2
20260503234003 59 153 4.0 6.0 0.00 0.00 0.00 63 1021.2
20260503233504 59 180 4.0 8.0 0.00 0.00 0.00 63 1021.3
20260503233004 59 206 5.0 8.0 0.00 0.00 0.00 62 1021.3
20260503232504 59 200 6.0 8.0 0.00 0.00 0.00 62 1021.3
20260503232003 59 194 6.0 8.0 0.00 0.00 0.00 62 1021.3
20260503231503 59 210 5.0 8.0 0.00 0.00 0.00 62 1021.3
20260503231217 59 224 5.0 8.0 0.00 0.00 0.00 61 1021.5
20260503230503 59 234 3.0 4.0 0.00 0.00 0.00 60 1021.4
20260503230004 59 258 1.0 2.0 0.00 0.00 0.00 59 1021.3
20260503225503 59 258 2.0 4.0 0.00 0.00 0.00 58 1021.3
20260503225003 59 243 3.0 5.0 0.00 0.00 0.00 58 1021.5
20260503224504 59 219 4.0 5.0 0.00 0.00 0.00 57 1021.5
20260503224003 59 211 4.0 5.0 0.00 0.00 0.00 56 1021.4
20260503223504 59 223 3.0 4.0 0.00 0.00 0.00 55 1021.4
20260503223003 59 222 3.0 4.0 0.00 0.00 0.00 55 1021.4
20260503222503 59 235 3.0 5.0 0.00 0.00 0.00 55 1021.7
20260503222003 59 244 3.0 5.0 0.00 0.00 0.00 57 1021.8
20260503221504 59 215 3.0 4.0 0.00 0.00 0.00 59 1021.8
20260503221003 59 184 3.0 4.0 0.00 0.00 0.00 59 1021.8
20260503220504 59 188 3.0 4.0 0.00 0.00 0.00 58 1021.6
20260503220004 59 142 4.0 4.0 0.00 0.00 0.00 58 1021.8
20260503215716 60 159 4.0 6.0 0.00 0.00 0.00 57 1022.0
20260503215004 60 188 5.0 6.0 0.00 0.00 0.00 57 1021.6
20260503214717 59 189 4.0 6.0 0.00 0.00 0.00 57 1021.7
20260503214003 60 250 4.0 6.0 0.00 0.00 0.00 57 1021.7
20260503213504 60 211 4.0 6.0 0.00 0.00 0.00 56 1021.6
20260503213004 60 215 5.0 8.0 0.00 0.00 0.00 56 1021.6
20260503212504 60 215 5.0 8.0 0.00 0.00 0.00 55 1021.5
20260503212004 60 199 6.0 8.0 0.00 0.00 0.00 55 1021.5
20260503211503 60 225 6.0 8.0 0.00 0.00 0.00 54 1021.6
20260503211003 60 267 5.0 6.0 0.00 0.00 0.00 53 1021.7
20260503210716 60 257 5.0 6.0 0.00 0.00 0.00 52 1021.5
20260503210005 60 203 5.0 6.0 0.00 0.00 0.00 51 1021.9
20260503205503 60 216 4.0 5.0 0.00 0.00 0.00 51 1021.7
20260503205003 60 249 3.0 5.0 0.00 0.00 0.00 51 1021.8
20260503204504 60 231 3.0 4.0 0.00 0.00 0.00 51 1021.8
20260503204216 60 236 4.0 6.0 0.00 0.00 0.00 51 1021.7
20260503203504 60 196 6.0 8.0 0.00 0.00 0.00 51 1021.7
20260503203004 60 177 7.0 10.0 0.00 0.00 0.00 52 1021.6
20260503202714 60 185 7.0 10.0 0.00 0.00 0.00 52 1021.7
20260503202003 60 184 6.0 9.0 0.00 0.00 0.00 52 1021.7
20260503201503 60 190 4.0 8.0 0.00 0.00 0.00 52 1021.5
20260503201005 61 260 2.0 5.0 0.00 0.00 0.00 52 1021.4
20260503200503 61 314 2.0 3.0 0.00 0.00 0.00 52 1021.5
20260503200004 61 310 3.0 3.0 0.00 0.00 0.00 52 1021.6
20260503195504 61 240 4.0 5.0 0.00 0.00 0.00 53 1021.5
20260503195003 61 223 5.0 7.0 0.00 0.00 0.00 53 1021.8
20260503194504 61 233 6.0 7.0 0.00 0.00 0.00 54 1021.5
20260503194004 61 206 6.0 8.0 0.00 0.00 0.00 52 1021.4
20260503193503 61 177 5.0 8.0 0.00 0.00 0.00 52 1021.4
20260503193004 61 256 3.0 5.0 0.00 0.00 0.00 53 1021.4
20260503192503 61 328 4.0 5.0 0.00 0.00 0.00 53 1021.2
20260503192004 61 176 5.0 6.0 0.00 0.00 0.00 52 1021.3
20260503191503 62 147 5.0 8.0 0.00 0.00 0.00 51 1021.3
20260503191214 62 93 5.0 8.0 0.00 0.00 0.00 45 1021.5
20260503190504 62 89 5.0 6.0 0.00 0.00 0.00 51 1021.2
20260503190003 62 40 4.0 6.0 0.00 0.00 0.00 51 1021.3
20260503185504 62 22 4.0 5.0 0.00 0.00 0.00 53 1021.1
20260503185005 62 90 4.0 6.0 0.00 0.00 0.00 55 1021.3
20260503184504 62 104 3.0 6.0 0.00 0.00 0.00 56 1021.1
20260503184217 62 97 3.0 6.0 0.00 0.00 0.00 57 1021.2
20260503183503 62 72 5.0 7.0 0.00 0.00 0.00 61 1021.4
20260503183004 62 48 4.0 7.0 0.00 0.00 0.00 61 1020.9
20260503182505 62 72 6.0 8.0 0.00 0.00 0.00 62 1021.1
20260503182004 62 72 7.0 9.0 0.00 0.00 0.00 62 1021.0
20260503181505 62 56 6.0 9.0 0.00 0.00 0.00 58 1021.0
20260503181003 62 35 5.0 8.0 0.00 0.00 0.00 58 1021.0
20260503180503 62 51 5.0 8.0 0.00 0.00 0.00 58 1020.8
20260503180004 62 93 6.0 8.0 0.00 0.00 0.00 58 1021.0
20260503175714 62 82 6.0 9.0 0.00 0.00 0.00 58 1020.8
20260503175004 62 81 7.0 9.0 0.00 0.00 0.00 57 1020.9
20260503174504 62 85 6.0 8.0 0.00 0.00 0.00 56 1020.9
20260503174003 62 81 6.0 8.0 0.00 0.00 0.00 56 1020.8
20260503173504 62 62 5.0 7.0 0.00 0.00 0.00 55 1021.1
20260503173004 63 59 5.0 6.0 0.00 0.00 0.00 56 1021.0
20260503172504 63 72 6.0 8.0 0.00 0.00 0.00 55 1020.9
20260503172003 63 61 6.0 8.0 0.00 0.00 0.00 55 1021.0
20260503171503 63 70 7.0 8.0 0.00 0.00 0.00 53 1020.9
20260503171003 63 106 5.0 8.0 0.00 0.00 0.00 53 1021.2
20260503170503 63 103 5.0 8.0 0.00 0.00 0.00 54 1020.8
20260503151004 65 70 9.0 15.0 0.00 0.00 0.00 45 1021.0
20260503150503 66 61 8.0 13.0 0.00 0.00 0.00 50 1021.1